sat.trackr.live / text

‹ back to catalog

2026-106C

NORAD 69099 · 2026-106C

PAYLOAD ACTIVE UNKNOWN

§ Identity

Operator
Country
PRC
Launch date
2026-05-15
Launch site
JSC
Launch vehicle
Mass (kg)
RCS (m²)

External: N2YO · Heavens-Above · Gunter

§ Orbital elements

Epoch: 2026-05-15T19:54:07.492896Z

Period
95.31 min
Inclination
97.5086°
Eccentricity
0.0012917
Mean motion
15.10839506 rev/d
Perigee alt
524.7 km
Apogee alt
542.6 km
Semi-major
6,911.8 km
B*
3.4035e-5
RAAN
218.5071°
Arg perigee
274.2037°
Mean anomaly
85.7716°
Rev number
10

§ Raw data

2026-106C1 69099U 26106C   26135.82925339  .00000503  00000+0  34035-4 0  99922 69099  97.5086 218.5071 0012917 274.2037  85.7716 15.10839506   102

JSON: /api/v1/satellites/69099 · /tle

For live sub-satellite position, see the globe view (requires WebGL).

§ Visibility from observer

Set your observer location to see the next 7 days of passes ≥ 10°. The values pass through the URL so the page stays shareable.

No JS? Fill the form by hand. The geolocation button needs JavaScript.